QPF
0.00 0.00 0.00 0.00 0.00 0.00 0.00 0.00 0.00 0.00 0.01 0.01 0.05 0.03 0.04 0.08 0.09 0.08 0.11 0.09 0.06 0.05 0.05 0.03 0.03 0.04 0.05 0.06 0.06 0.05 0.05 0.05 0.05 0.08 0.12 0.12 0.10 0.09 0.08 0.07 0.05 0.04 0.03 0.03
0.00 0.00 0.00 0.00 0.00 0.00 0.00 0.01 0.01 0.02 0.02 0.03 0.02 0.02 0.04 0.05 0.04 0.05 0.06 0.09 0.07 0.04 0.03 0.02 0.01 0.01 0.02 0.02 0.02 0.03 0.03 0.04 0.04 0.06 0.11 0.13 0.14 0.10 0.08 0.07 0.06 0.05 0.04 0.02
0.00 0.00 0.00 0.00 0.01 0.01 0.01 0.01 0.02 0.02 0.02 0.04 0.05 0.03 0.04 0.04 0.03 0.04 0.04 0.04 0.06 0.08 0.07 0.04 0.02 0.01 0.01 0.01 0.02 0.02 0.02 0.03 0.03 0.03 0.05 0.08 0.09 0.09 0.09 0.07 0.06 0.05 0.04 0.03
0.00 0.00 0.01 0.01 0.01 0.01 0.02 0.04 0.03 0.03 0.02 0.04 0.07 0.08 0.05 0.05 0.05 0.03 0.04 0.06 0.07 0.10 0.13 0.10 0.06 0.03 0.01 0.01 0.01 0.02 0.02 0.02 0.03 0.04 0.05 0.06 0.07 0.08 0.10 0.10 0.07 0.05 0.04 0.03
0.01 0.02 0.01 0.01 0.01 0.01 0.05 0.11 0.05 0.03 0.07 0.06 0.07 0.08 0.09 0.10 0.09 0.07 0.10 0.12 0.10 0.10 0.13 0.11 0.09 0.06 0.03 0.02 0.02 0.02 0.02 0.03 0.03 0.04 0.04 0.04 0.05 0.05 0.05 0.06 0.06 0.04 0.03 0.03
0.01 0.01 0.01 0.01 0.01 0.01 0.02 0.06 0.05 0.03 0.08 0.11 0.09 0.06 0.05 0.05 0.04 0.04 0.08 0.12 0.12 0.12 0.11 0.08 0.06 0.05 0.05 0.04 0.03 0.03 0.03 0.03 0.04 0.05 0.04 0.04 0.04 0.05 0.06 0.05 0.05 0.04 0.03 0.03
0.04 0.02 0.01 0.01 0.01 0.01 0.03 0.05 0.03 0.05 0.07 0.07 0.04 0.03 0.03 0.03 0.03 0.03 0.04 0.05 0.05 0.04 0.04 0.03 0.04 0.04 0.04 0.05 0.06 0.06 0.06 0.06 0.07 0.07 0.07 0.06 0.07 0.07 0.07 0.07 0.08 0.08 0.06 0.05
0.02 0.02 0.01 0.00 0.00 0.01 0.02 0.02 0.02 0.04 0.06 0.04 0.01 0.01 0.01 0.02 0.02 0.03 0.03 0.03 0.03 0.03 0.03 0.03 0.04 0.05 0.05 0.05 0.05 0.07 0.08 0.08 0.09 0.09 0.08 0.07 0.06 0.06 0.08 0.09 0.10 0.10 0.09 0.05
0.02 0.02 0.01 0.01 0.00 0.01 0.01 0.02 0.02 0.03 0.05 0.04 0.01 0.01 0.01 0.01 0.01 0.02 0.02 0.03 0.03 0.04 0.04 0.05 0.06 0.05 0.05 0.04 0.05 0.05 0.06 0.07 0.08 0.08 0.09 0.08 0.07 0.07 0.09 0.10 0.09 0.09 0.07 0.04
0.02 0.03 0.02 0.02 0.01 0.01 0.02 0.01 0.02 0.02 0.02 0.02 0.01 0.02 0.02 0.02 0.01 0.01 0.02 0.03 0.04 0.04 0.04 0.04 0.04 0.05 0.05 0.05 0.06 0.07 0.06 0.05 0.05 0.05 0.06 0.07 0.07 0.07 0.09 0.09 0.10 0.08 0.06 0.04
0.03 0.03 0.06 0.08 0.07 0.06 0.06 0.04 0.02 0.03 0.04 0.03 0.01 0.02 0.03 0.03 0.02 0.02 0.02 0.03 0.03 0.03 0.04 0.05 0.05 0.06 0.06 0.07 0.08 0.08 0.07 0.06 0.06 0.05 0.05 0.05 0.06 0.06 0.07 0.06 0.06 0.07 0.06 0.05
0.07 0.07 0.08 0.14 0.17 0.15 0.09 0.06 0.03 0.05 0.07 0.04 0.01 0.01 0.03 0.04 0.03 0.03 0.03 0.03 0.03 0.04 0.05 0.06 0.06 0.07 0.06 0.06 0.07 0.08 0.09 0.09 0.08 0.06 0.05 0.04 0.04 0.03 0.05 0.06 0.06 0.05 0.04 0.04
0.06 0.04 0.05 0.09 0.15 0.12 0.05 0.05 0.04 0.07 0.10 0.03 0.02 0.01 0.03 0.05 0.03 0.03 0.04 0.05 0.04 0.05 0.06 0.06 0.06 0.06 0.06 0.05 0.05 0.06 0.08 0.10 0.10 0.08 0.06 0.04 0.03 0.03 0.03 0.05 0.06 0.04 0.02 0.02
0.04 0.04 0.04 0.05 0.06 0.07 0.07 0.05 0.04 0.08 0.09 0.04 0.03 0.03 0.02 0.03 0.02 0.02 0.03 0.04 0.04 0.04 0.04 0.05 0.04 0.04 0.04 0.02 0.02 0.03 0.05 0.08 0.09 0.10 0.08 0.04 0.03 0.02 0.02 0.02 0.02 0.02 0.02 0.02
0.07 0.06 0.04 0.03 0.07 0.15 0.14 0.08 0.08 0.09 0.10 0.05 0.02 0.02 0.01 0.01 0.01 0.02 0.02 0.02 0.02 0.02 0.03 0.03 0.02 0.02 0.02 0.01 0.01 0.01 0.02 0.03 0.06 0.08 0.08 0.05 0.03 0.02 0.02 0.02 0.01 0.01 0.01 0.02
0.05 0.05 0.05 0.05 0.10 0.20 0.20 0.09 0.07 0.09 0.10 0.06 0.02 0.01 0.01 0.01 0.01 0.02 0.02 0.01 0.01 0.02 0.02 0.01 0.01 0.01 0.01 0.01 0.01 0.01 0.01 0.02 0.03 0.05 0.05 0.04 0.04 0.04 0.03 0.02 0.02 0.02 0.03 0.03
0.04 0.04 0.05 0.05 0.09 0.14 0.18 0.09 0.04 0.04 0.05 0.04 0.02 0.01 0.00 0.01 0.01 0.01 0.01 0.01 0.01 0.01 0.01 0.01 0.01 0.00 0.01 0.01 0.01 0.00 0.00 0.01 0.01 0.02 0.03 0.04 0.04 0.04 0.04 0.03 0.03 0.04 0.05 0.05
0.05 0.03 0.03 0.03 0.03 0.05 0.08 0.05 0.02 0.02 0.02 0.02 0.01 0.00 0.00 0.01 0.01 0.01 0.01 0.01 0.01 0.01 0.01 0.01 0.01 0.01 0.01 0.01 0.01 0.01 0.01 0.00 0.01 0.01 0.01 0.03 0.03 0.04 0.04 0.04 0.04 0.05 0.07 0.07
0.08 0.05 0.03 0.02 0.02 0.01 0.02 0.03 0.02 0.02 0.01 0.00 0.00 0.00 0.00 0.01 0.01 0.02 0.02 0.02 0.02 0.01 0.01 0.02 0.01 0.01 0.01 0.01 0.01 0.01 0.01 0.01 0.01 0.01 0.01 0.02 0.03 0.03 0.05 0.05 0.06 0.07 0.09 0.09
0.09 0.11 0.10 0.04 0.01 0.01 0.01 0.02 0.03 0.02 0.01 0.01 0.00 0.00 0.00 0.00 0.00 0.01 0.01 0.01 0.02 0.02 0.01 0.01 0.01 0.01 0.01 0.01 0.02 0.02 0.02 0.02 0.02 0.02 0.02 0.02 0.03 0.04 0.06 0.07 0.07 0.09 0.11 0.10
0.08 0.11 0.16 0.12 0.05 0.02 0.01 0.01 0.01 0.01 0.01 0.01 0.01 0.01 0.01 0.01 0.00 0.00 0.00 0.01 0.01 0.01 0.01 0.01 0.01 0.01 0.02 0.02 0.03 0.03 0.04 0.05 0.05 0.04 0.02 0.02 0.02 0.04 0.07 0.08 0.09 0.10 0.12 0.11
0.05 0.06 0.07 0.10 0.10 0.04 0.02 0.01 0.01 0.01 0.01 0.01 0.01 0.01 0.01 0.02 0.02 0.01 0.01 0.01 0.01 0.01 0.01 0.00 0.01 0.02 0.02 0.02 0.02 0.03 0.03 0.03 0.04 0.02 0.01 0.01 0.02 0.02 0.04 0.06 0.06 0.07 0.09 0.11
0.04 0.04 0.05 0.09 0.10 0.05 0.03 0.02 0.01 0.01 0.01 0.01 0.01 0.01 0.01 0.01 0.02 0.02 0.02 0.01 0.01 0.01 0.00 0.00 0.01 0.02 0.02 0.02 0.02 0.02 0.03 0.02 0.02 0.02 0.02 0.02 0.02 0.03 0.03 0.04 0.05 0.05 0.06 0.06
0.03 0.02 0.03 0.04 0.05 0.05 0.04 0.03 0.02 0.01 0.01 0.01 0.01 0.01 0.01 0.01 0.01 0.01 0.01 0.01 0.01 0.01 0.01 0.01 0.01 0.01 0.02 0.02 0.02 0.01 0.01 0.01 0.01 0.02 0.02 0.02 0.02 0.02 0.03 0.04 0.05 0.05 0.05 0.05
0.03 0.03 0.02 0.01 0.02 0.02 0.02 0.02 0.02 0.02 0.01 0.01 0.01 0.01 0.01 0.01 0.01 0.01 0.01 0.01 0.01 0.02 0.02 0.02 0.02 0.02 0.02 0.02 0.02 0.01 0.01 0.01 0.01 0.01 0.02 0.02 0.03 0.03 0.04 0.04 0.05 0.05 0.04 0.04
0.02 0.02 0.01 0.01 0.01 0.01 0.01 0.01 0.01 0.01 0.01 0.01 0.01 0.01 0.01 0.01 0.01 0.01 0.01 0.01 0.01 0.01 0.01 0.02 0.02 0.02 0.02 0.02 0.01 0.01 0.01 0.02 0.02 0.03 0.03 0.03 0.04 0.04 0.05 0.06 0.06 0.05 0.04 0.04
0.03 0.02 0.01 0.01 0.01 0.01 0.01 0.01 0.02 0.02 0.02 0.01 0.01 0.01 0.01 0.01 0.00 0.01 0.01 0.01 0.01 0.01 0.01 0.02 0.02 0.01 0.01 0.01 0.01 0.01 0.01 0.02 0.02 0.03 0.03 0.04 0.05 0.05 0.06 0.07 0.06 0.05 0.04 0.04
MSLP
1011.64 1011.97 1012.21 1012.39 1012.56 1012.73 1012.92 1013.14 1013.36 1013.57 1013.77 1013.96 1014.12 1014.30 1014.48 1014.68 1014.91 1015.15 1015.38 1015.59 1015.74 1015.82 1015.84 1015.81 1015.76 1015.71 1015.72 1015.82 1016.02 1016.35 1016.78 1017.29 1017.85 1018.41 1018.95 1019.42 1019.81 1020.12 1020.35 1020.50 1020.61 1020.68 1020.72 1020.76
1012.06 1012.32 1012.39 1012.34 1012.24 1012.14 1012.09 1012.12 1012.24 1012.44 1012.70 1013.01 1013.35 1013.69 1014.02 1014.32 1014.59 1014.81 1014.97 1015.08 1015.14 1015.15 1015.13 1015.10 1015.10 1015.14 1015.26 1015.47 1015.78 1016.19 1016.67 1017.22 1017.80 1018.38 1018.94 1019.45 1019.90 1020.28 1020.59 1020.84 1021.02 1021.16 1021.26 1021.32
1012.49 1012.65 1012.58 1012.34 1012.01 1011.69 1011.44 1011.31 1011.32 1011.49 1011.78 1012.17 1012.61 1013.06 1013.48 1013.84 1014.12 1014.31 1014.42 1014.46 1014.44 1014.40 1014.37 1014.37 1014.42 1014.55 1014.77 1015.08 1015.47 1015.94 1016.48 1017.05 1017.64 1018.24 1018.81 1019.37 1019.88 1020.34 1020.74 1021.09 1021.37 1021.59 1021.75 1021.86
1012.86 1012.92 1012.72 1012.33 1011.84 1011.35 1010.94 1010.69 1010.61 1010.73 1011.01 1011.43 1011.92 1012.42 1012.88 1013.27 1013.55 1013.72 1013.80 1013.80 1013.75 1013.70 1013.68 1013.72 1013.83 1014.03 1014.33 1014.70 1015.16 1015.66 1016.21 1016.79 1017.39 1017.99 1018.59 1019.18 1019.75 1020.29 1020.80 1021.24 1021.62 1021.92 1022.15 1022.29
1013.05 1013.03 1012.73 1012.24 1011.65 1011.05 1010.54 1010.20 1010.05 1010.12 1010.38 1010.79 1011.28 1011.80 1012.28 1012.67 1012.96 1013.13 1013.20 1013.20 1013.17 1013.14 1013.15 1013.24 1013.40 1013.65 1013.99 1014.40 1014.87 1015.38 1015.92 1016.48 1017.06 1017.66 1018.28 1018.90 1019.53 1020.15 1020.74 1021.28 1021.74 1022.12 1022.40 1022.58
1012.97 1012.86 1012.51 1011.97 1011.33 1010.70 1010.15 1009.77 1009.58 1009.62 1009.85 1010.23 1010.71 1011.22 1011.70 1012.11 1012.41 1012.61 1012.71 1012.75 1012.76 1012.78 1012.84 1012.96 1013.16 1013.43 1013.78 1014.18 1014.62 1015.10 1015.60 1016.13 1016.69 1017.28 1017.90 1018.56 1019.24 1019.93 1020.59 1021.20 1021.74 1022.18 1022.50 1022.71
1012.53 1012.36 1011.98 1011.45 1010.84 1010.23 1009.71 1009.33 1009.15 1009.17 1009.38 1009.74 1010.21 1010.71 1011.19 1011.62 1011.96 1012.21 1012.37 1012.48 1012.55 1012.62 1012.73 1012.88 1013.08 1013.34 1013.65 1014.00 1014.39 1014.80 1015.25 1015.74 1016.27 1016.85 1017.50 1018.19 1018.92 1019.66 1020.38 1021.05 1021.63 1022.11 1022.46 1022.69
1011.72 1011.52 1011.16 1010.68 1010.15 1009.62 1009.18 1008.87 1008.72 1008.76 1008.97 1009.32 1009.78 1010.28 1010.77 1011.23 1011.62 1011.94 1012.18 1012.36 1012.51 1012.63 1012.77 1012.92 1013.11 1013.32 1013.56 1013.84 1014.14 1014.48 1014.87 1015.31 1015.82 1016.41 1017.08 1017.81 1018.58 1019.37 1020.14 1020.85 1021.47 1021.97 1022.33 1022.57
1010.59 1010.39 1010.09 1009.71 1009.31 1008.92 1008.60 1008.38 1008.31 1008.39 1008.62 1008.97 1009.42 1009.93 1010.44 1010.94 1011.39 1011.78 1012.10 1012.36 1012.56 1012.74 1012.88 1013.02 1013.16 1013.30 1013.45 1013.63 1013.84 1014.11 1014.44 1014.86 1015.37 1015.98 1016.68 1017.46 1018.28 1019.12 1019.93 1020.66 1021.30 1021.80 1022.17 1022.41
1009.26 1009.10 1008.89 1008.66 1008.41 1008.19 1008.02 1007.93 1007.94 1008.08 1008.33 1008.70 1009.15 1009.66 1010.19 1010.72 1011.22 1011.67 1012.07 1012.39 1012.65 1012.85 1013.00 1013.10 1013.17 1013.23 1013.29 1013.38 1013.51 1013.72 1014.01 1014.42 1014.95 1015.59 1016.34 1017.18 1018.06 1018.94 1019.77 1020.53 1021.16 1021.67 1022.03 1022.27
1007.90 1007.81 1007.73 1007.65 1007.58 1007.53 1007.51 1007.55 1007.66 1007.85 1008.13 1008.50 1008.94 1009.45 1009.99 1010.54 1011.08 1011.58 1012.02 1012.40 1012.69 1012.91 1013.04 1013.11 1013.13 1013.12 1013.10 1013.11 1013.18 1013.35 1013.64 1014.06 1014.62 1015.32 1016.13 1017.02 1017.94 1018.86 1019.71 1020.47 1021.10 1021.60 1021.95 1022.19
1006.66 1006.67 1006.72 1006.81 1006.91 1007.02 1007.15 1007.30 1007.49 1007.72 1008.02 1008.37 1008.80 1009.28 1009.81 1010.36 1010.92 1011.45 1011.93 1012.34 1012.67 1012.89 1013.02 1013.07 1013.05 1012.99 1012.92 1012.90 1012.95 1013.11 1013.40 1013.86 1014.46 1015.21 1016.07 1017.00 1017.96 1018.89 1019.75 1020.50 1021.12 1021.59 1021.94 1022.17
1005.67 1005.78 1005.96 1006.20 1006.45 1006.70 1006.95 1007.19 1007.43 1007.68 1007.97 1008.30 1008.69 1009.14 1009.64 1010.17 1010.73 1011.27 1011.78 1012.22 1012.57 1012.82 1012.96 1013.01 1012.99 1012.92 1012.85 1012.83 1012.89 1013.07 1013.40 1013.88 1014.53 1015.31 1016.20 1017.16 1018.12 1019.04 1019.87 1020.59 1021.18 1021.63 1021.95 1022.18
1004.96 1005.16 1005.46 1005.81 1006.18 1006.54 1006.88 1007.17 1007.44 1007.70 1007.97 1008.26 1008.60 1009.00 1009.45 1009.96 1010.51 1011.05 1011.58 1012.05 1012.43 1012.72 1012.91 1013.00 1013.01 1012.99 1012.96 1012.97 1013.07 1013.29 1013.65 1014.17 1014.84 1015.63 1016.52 1017.45 1018.37 1019.24 1020.02 1020.69 1021.23 1021.64 1021.94 1022.16
1004.50 1004.77 1005.15 1005.58 1006.04 1006.47 1006.86 1007.20 1007.48 1007.72 1007.96 1008.20 1008.49 1008.84 1009.25 1009.73 1010.25 1010.80 1011.35 1011.85 1012.29 1012.64 1012.90 1013.06 1013.15 1013.20 1013.25 1013.33 1013.49 1013.76 1014.16 1014.70 1015.36 1016.13 1016.96 1017.83 1018.67 1019.45 1020.15 1020.73 1021.21 1021.57 1021.84 1022.05
1004.18 1004.50 1004.93 1005.42 1005.92 1006.40 1006.82 1007.17 1007.46 1007.69 1007.90 1008.11 1008.35 1008.66 1009.03 1009.48 1009.99 1010.54 1011.10 1011.65 1012.15 1012.58 1012.92 1013.19 1013.39 1013.54 1013.69 1013.87 1014.10 1014.42 1014.84 1015.38 1016.00 1016.71 1017.45 1018.21 1018.93 1019.60 1020.18 1020.67 1021.06 1021.36 1021.60 1021.79
1003.90 1004.24 1004.69 1005.20 1005.74 1006.24 1006.68 1007.05 1007.34 1007.57 1007.76 1007.95 1008.17 1008.44 1008.79 1009.21 1009.71 1010.27 1010.85 1011.44 1012.00 1012.51 1012.95 1013.33 1013.65 1013.93 1014.19 1014.46 1014.76 1015.13 1015.57 1016.07 1016.64 1017.26 1017.89 1018.51 1019.09 1019.62 1020.07 1020.44 1020.75 1020.99 1021.19 1021.37
1003.56 1003.89 1004.35 1004.87 1005.42 1005.94 1006.40 1006.79 1007.10 1007.34 1007.54 1007.73 1007.94 1008.20 1008.52 1008.93 1009.42 1009.97 1010.57 1011.19 1011.80 1012.38 1012.92 1013.40 1013.83 1014.23 1014.60 1014.96 1015.33 1015.74 1016.17 1016.65 1017.14 1017.65 1018.16 1018.64 1019.08 1019.47 1019.79 1020.06 1020.28 1020.46 1020.63 1020.79
1003.10 1003.42 1003.87 1004.40 1004.96 1005.50 1005.98 1006.40 1006.74 1007.01 1007.24 1007.45 1007.67 1007.92 1008.24 1008.64 1009.11 1009.65 1010.24 1010.87 1011.51 1012.14 1012.74 1013.31 1013.83 1014.32 1014.78 1015.22 1015.65 1016.09 1016.52 1016.96 1017.39 1017.81 1018.20 1018.56 1018.87 1019.14 1019.36 1019.53 1019.69 1019.82 1019.96 1020.11
1002.55 1002.86 1003.30 1003.83 1004.40 1004.95 1005.47 1005.92 1006.30 1006.62 1006.89 1007.13 1007.37 1007.64 1007.95 1008.33 1008.77 1009.28 1009.85 1010.46 1011.10 1011.74 1012.38 1012.99 1013.58 1014.14 1014.67 1015.17 1015.65 1016.10 1016.54 1016.95 1017.33 1017.68 1017.99 1018.25 1018.48 1018.66 1018.80 1018.92 1019.03 1019.14 1019.26 1019.40
1001.97 1002.28 1002.71 1003.23 1003.80 1004.38 1004.92 1005.42 1005.85 1006.21 1006.53 1006.81 1007.08 1007.35 1007.66 1008.01 1008.42 1008.88 1009.40 1009.97 1010.58 1011.20 1011.84 1012.47 1013.08 1013.68 1014.25 1014.80 1015.31 1015.79 1016.23 1016.63 1016.99 1017.30 1017.56 1017.77 1017.95 1018.08 1018.20 1018.29 1018.38 1018.48 1018.59 1018.72
1001.46 1001.75 1002.18 1002.69 1003.26 1003.84 1004.41 1004.93 1005.41 1005.82 1006.18 1006.49 1006.78 1007.07 1007.36 1007.69 1008.05 1008.46 1008.92 1009.43 1009.98 1010.57 1011.17 1011.79 1012.40 1013.01 1013.61 1014.18 1014.71 1015.21 1015.67 1016.07 1016.43 1016.73 1016.98 1017.18 1017.34 1017.48 1017.58 1017.68 1017.78 1017.88 1017.99 1018.12
1001.08 1001.36 1001.76 1002.26 1002.81 1003.38 1003.96 1004.50 1005.00 1005.44 1005.84 1006.18 1006.49 1006.78 1007.07 1007.36 1007.69 1008.04 1008.44 1008.89 1009.38 1009.90 1010.47 1011.05 1011.65 1012.26 1012.86 1013.44 1013.99 1014.50 1014.97 1015.39 1015.76 1016.07 1016.33 1016.54 1016.72 1016.87 1017.00 1017.11 1017.23 1017.34 1017.46 1017.58
1000.88 1001.13 1001.49 1001.94 1002.46 1003.01 1003.56 1004.11 1004.61 1005.08 1005.49 1005.86 1006.18 1006.48 1006.76 1007.04 1007.33 1007.65 1008.00 1008.39 1008.82 1009.30 1009.82 1010.37 1010.95 1011.54 1012.13 1012.71 1013.27 1013.79 1014.26 1014.69 1015.07 1015.40 1015.67 1015.91 1016.10 1016.28 1016.43 1016.57 1016.70 1016.83 1016.96 1017.08
1000.83 1001.03 1001.34 1001.73 1002.19 1002.69 1003.20 1003.72 1004.21 1004.68 1005.10 1005.49 1005.83 1006.14 1006.43 1006.71 1006.99 1007.29 1007.61 1007.97 1008.37 1008.82 1009.30 1009.83 1010.38 1010.95 1011.52 1012.09 1012.64 1013.15 1013.63 1014.05 1014.43 1014.76 1015.04 1015.28 1015.49 1015.68 1015.85 1016.01 1016.15 1016.29 1016.42 1016.54
1000.89 1001.02 1001.25 1001.56 1001.95 1002.37 1002.83 1003.30 1003.77 1004.22 1004.65 1005.04 1005.40 1005.74 1006.05 1006.35 1006.64 1006.95 1007.28 1007.63 1008.03 1008.46 1008.93 1009.44 1009.97 1010.52 1011.08 1011.62 1012.15 1012.64 1013.09 1013.49 1013.85 1014.16 1014.42 1014.65 1014.86 1015.04 1015.21 1015.37 1015.52 1015.66 1015.79 1015.91
1000.99 1001.05 1001.18 1001.40 1001.69 1002.03 1002.42 1002.83 1003.26 1003.69 1004.11 1004.52 1004.90 1005.27 1005.61 1005.95 1006.28 1006.62 1006.97 1007.35 1007.75 1008.20 1008.67 1009.17 1009.69 1010.22 1010.75 1011.27 1011.75 1012.20 1012.61 1012.97 1013.28 1013.55 1013.78 1013.98 1014.15 1014.32 1014.47 1014.62 1014.76 1014.90 1015.04 1015.16
Thickness
5777 5787 5790 5788 5791 5792 5781 5771 5759 5761 5764 5769 5776 5780 5781 5781 5779 5777 5774 5773 5773 5770 5768 5768 5768 5766 5766 5764 5763 5761 5758 5755 5754 5754 5752 5751 5749 5747 5746 5743 5741 5738 5736 5735
5771 5785 5784 5780 5786 5787 5783 5779 5771 5767 5763 5776 5780 5780 5777 5776 5775 5771 5769 5769 5769 5768 5766 5765 5763 5762 5761 5759 5758 5756 5753 5751 5749 5748 5746 5744 5743 5742 5739 5737 5734 5732 5730 5729
5748 5767 5769 5755 5771 5777 5773 5774 5771 5760 5765 5773 5770 5770 5770 5771 5770 5768 5765 5764 5763 5763 5763 5761 5759 5759 5756 5755 5754 5751 5748 5746 5744 5742 5740 5738 5737 5735 5732 5730 5728 5725 5723 5722
5736 5746 5730 5751 5780 5780 5770 5767 5772 5770 5770 5771 5770 5769 5769 5770 5766 5763 5762 5760 5760 5758 5757 5757 5756 5754 5752 5750 5747 5744 5742 5740 5739 5737 5734 5732 5730 5727 5725 5723 5720 5718 5716 5715
5722 5720 5728 5754 5771 5772 5760 5750 5766 5765 5765 5766 5767 5763 5758 5764 5765 5762 5760 5758 5757 5755 5753 5751 5750 5749 5746 5742 5740 5738 5735 5734 5733 5731 5728 5725 5723 5720 5719 5717 5714 5712 5710 5707
5720 5718 5715 5740 5767 5777 5762 5736 5759 5761 5758 5758 5756 5738 5741 5755 5757 5756 5755 5753 5751 5750 5747 5744 5743 5741 5737 5734 5732 5731 5730 5728 5727 5725 5722 5719 5717 5715 5713 5710 5707 5705 5702 5700
5714 5712 5720 5748 5765 5767 5733 5733 5755 5757 5755 5753 5747 5745 5748 5750 5748 5748 5747 5745 5743 5742 5739 5737 5737 5734 5729 5726 5724 5725 5724 5723 5721 5719 5716 5713 5710 5708 5706 5703 5700 5697 5694 5692
5705 5702 5712 5749 5753 5742 5739 5751 5753 5753 5752 5749 5747 5747 5745 5744 5741 5740 5737 5736 5735 5732 5730 5729 5728 5725 5720 5718 5718 5718 5717 5715 5713 5712 5710 5708 5703 5700 5697 5694 5690 5688 5685 5683
5709 5711 5730 5743 5745 5749 5750 5747 5748 5746 5746 5745 5742 5738 5736 5734 5732 5731 5730 5727 5726 5723 5720 5719 5718 5716 5712 5712 5712 5711 5709 5707 5705 5704 5701 5699 5695 5691 5688 5685 5681 5679 5676 5673
5708 5717 5726 5733 5739 5743 5745 5743 5744 5743 5741 5739 5733 5730 5727 5725 5723 5721 5720 5717 5716 5713 5710 5708 5709 5707 5705 5704 5705 5703 5700 5697 5696 5694 5692 5689 5686 5683 5680 5677 5674 5671 5668 5666
5701 5709 5715 5723 5727 5731 5734 5737 5736 5736 5735 5732 5727 5722 5720 5716 5714 5712 5710 5708 5706 5703 5701 5699 5699 5697 5696 5696 5695 5693 5690 5688 5686 5685 5682 5679 5677 5675 5673 5672 5670 5666 5664 5661
5693 5704 5703 5707 5718 5723 5724 5723 5725 5725 5722 5721 5719 5714 5712 5708 5705 5702 5699 5698 5695 5693 5691 5690 5689 5687 5686 5686 5685 5682 5679 5677 5675 5674 5672 5670 5668 5667 5666 5665 5664 5663 5661 5657
5701 5706 5705 5708 5712 5715 5715 5715 5714 5714 5712 5709 5708 5707 5703 5698 5695 5693 5690 5687 5685 5683 5682 5681 5679 5677 5677 5676 5674 5671 5669 5667 5665 5664 5663 5661 5659 5657 5655 5655 5655 5654 5653 5651
5700 5700 5696 5699 5700 5705 5705 5705 5705 5704 5703 5701 5699 5697 5693 5690 5687 5684 5681 5679 5677 5675 5673 5671 5669 5667 5666 5665 5664 5662 5660 5659 5657 5655 5653 5652 5651 5649 5647 5645 5644 5643 5644 5643
5690 5691 5689 5690 5692 5693 5694 5694 5692 5688 5688 5687 5687 5684 5682 5680 5676 5674 5673 5672 5669 5666 5663 5661 5659 5658 5657 5656 5654 5652 5650 5649 5647 5646 5644 5643 5642 5640 5639 5637 5636 5635 5634 5634
5683 5683 5682 5681 5680 5681 5682 5681 5678 5676 5676 5676 5675 5674 5673 5671 5669 5666 5664 5662 5659 5656 5654 5652 5650 5649 5648 5647 5645 5643 5641 5641 5639 5637 5635 5634 5633 5631 5630 5629 5628 5627 5627 5626
5674 5672 5670 5669 5670 5672 5672 5671 5670 5669 5669 5667 5666 5665 5663 5661 5658 5655 5653 5652 5650 5648 5646 5643 5642 5641 5639 5638 5636 5634 5633 5632 5632 5629 5627 5626 5624 5623 5621 5620 5620 5619 5620 5620
5673 5671 5669 5667 5665 5663 5664 5664 5663 5662 5660 5659 5658 5656 5653 5650 5647 5645 5644 5642 5640 5637 5636 5634 5633 5632 5631 5630 5628 5626 5625 5623 5621 5620 5618 5617 5616 5615 5614 5613 5613 5612 5612 5611
5666 5665 5663 5661 5659 5658 5656 5655 5655 5654 5654 5652 5649 5646 5644 5641 5639 5636 5634 5631 5629 5626 5625 5625 5624 5623 5622 5621 5620 5618 5616 5615 5613 5611 5610 5609 5607 5606 5606 5605 5605 5604 5603 5602
5657 5655 5654 5652 5651 5650 5648 5647 5647 5646 5645 5643 5640 5637 5634 5631 5630 5627 5625 5621 5619 5618 5618 5617 5616 5614 5614 5613 5612 5610 5608 5606 5604 5603 5601 5600 5599 5598 5598 5598 5597 5596 5595 5593
5647 5646 5645 5643 5642 5642 5641 5640 5638 5636 5636 5635 5632 5628 5625 5623 5621 5618 5615 5612 5612 5612 5611 5610 5608 5607 5606 5605 5604 5602 5600 5598 5596 5594 5593 5592 5592 5591 5590 5589 5588 5587 5586 5584
5637 5637 5637 5635 5632 5631 5632 5631 5630 5629 5627 5625 5623 5621 5618 5614 5612 5609 5607 5604 5605 5604 5603 5601 5600 5599 5598 5597 5595 5593 5592 5590 5588 5586 5585 5584 5583 5582 5581 5580 5578 5577 5576 5574
5629 5628 5627 5625 5624 5623 5624 5624 5623 5621 5619 5617 5615 5613 5610 5608 5605 5602 5598 5597 5597 5597 5595 5593 5592 5592 5590 5589 5587 5585 5583 5581 5579 5578 5576 5575 5574 5573 5572 5571 5570 5568 5566 5565
5621 5620 5619 5618 5617 5614 5613 5613 5613 5613 5611 5610 5608 5606 5604 5600 5598 5597 5594 5593 5591 5590 5587 5586 5585 5584 5583 5580 5579 5577 5575 5573 5571 5569 5568 5567 5566 5565 5564 5563 5561 5559 5558 5557
5613 5613 5611 5609 5607 5605 5605 5605 5605 5604 5603 5601 5600 5599 5598 5596 5592 5590 5588 5586 5585 5583 5581 5580 5579 5577 5575 5573 5571 5569 5568 5566 5564 5562 5560 5559 5558 5557 5556 5554 5552 5551 5550 5549
5606 5604 5603 5603 5602 5600 5600 5598 5596 5594 5593 5592 5592 5592 5591 5589 5586 5584 5581 5580 5578 5576 5573 5571 5570 5569 5567 5566 5564 5562 5561 5559 5557 5555 5553 5552 5551 5549 5547 5546 5545 5543 5542 5541
5598 5597 5597 5596 5596 5595 5594 5593 5591 5589 5588 5586 5584 5584 5583 5582 5579 5577 5575 5573 5570 5568 5566 5565 5564 5562 5560 5559 5557 5556 5554 5552 5550 5548 5547 5545 5543 5542 5540 5539 5537 5536 5535 5533